Location: Waco, TX
(31.5480°N, 97.1670°W)
Time: 01:42:07
(UTC-06:00)

ISS - Pass Details

Date: 25 January 2021
Orbit: 417 x 422 km, 51.6° (Epoch: 09 March)

Event Time Altitude Azimuth Distance (km) Brightness Sun altitude
Rises 17:05:02 0° 267° (W) 2,359 1.4 9.3°
Reaches altitude 10° 17:07:57 10° 295° (WNW) 1,499 -0.3 8.7°
Maximum altitude 17:09:44 14° 327° (NNW) 1,298 -1.2 8.4°
Drops below altitude 10° 17:11:32 10° 360° (N) 1,503 -1.2 8.0°
Sets 17:14:29 0° 27° (NNE) 2,371 -0.4 7.5°
